Regional Weather Roundup
Issued by NWS Green Bay, WI

Home | Current Version | Previous Version | Graphics & Text | Print | Product List | Glossary Off
Versions: 1 2 3 4 5 6 7 8 9 10 11 12 13 14 15 16 17 18 19 20 21 22 23 24 25 26 27 28 29 30 31 32 33 34 35 36 37 38 39 40 41 42 43 44 45 46 47 48 49 50

000
ASUS43 KGRB 160600
RWRGRB

NORTH-CENTRAL AND NORTHEAST WISCONSIN REGIONAL WEATHER ROUNDUP
NATIONAL WEATHER SERVICE GREEN BAY WI
1200 AM CST SAT DEC 16 2017

WIZ005-009-010>012-018-019-160700-
NORTH CENTRAL WISCONSIN

CITY           SKY/WX    TMP DP  RH WIND       PRES   REMARKS
IRONWOOD       CLOUDY     8   6  92 E3        29.78F
MANITOWISH WTR NOT AVBL
ARBOR VITAE    NOT AVBL
EAGLE RIVER    NOT AVBL
LAND O LAKES   NOT AVBL
RHINELANDER    CLOUDY    10   7  87 E6        29.76S WCI   0
PHILLIPS       NOT AVBL
ANTIGO         NOT AVBL
TOMAHAWK       NOT AVBL
MERRILL        NOT AVBL
$$

WIZ013-073-160700-
NORTHEAST WISCONSIN

CITY           SKY/WX    TMP DP  RH WIND       PRES   REMARKS
IRON MOUNTAIN  CLOUDY     8   3  80 CALM      29.79F
MARINETTE      CLOUDY    12   6  77 CALM      29.86F
$$

WIZ017-030-035>037-045-160700-
CENTRAL WISCONSIN

CITY           SKY/WX    TMP DP  RH WIND       PRES   REMARKS
MEDFORD        NOT AVBL
WAUSAU         LGT SNOW  14  12  92 E5        29.76F FOG     WCI   6
MOSINEE        NOT AVBL
MARSHFIELD     LGT SNOW  18  15  88 E6        29.74F FOG     WCI  10
WISC RAPIDS    LGT SNOW  20  16  84 E6        29.79F FOG
STEVENS POINT  NOT AVBL
WAUPACA        NOT AVBL
SHAWANO        NOT AVBL
CLINTONVILLE   NOT AVBL
WAUTOMA        LGT SNOW  20  18  92 NE6       29.80F FOG
$$

WIZ038-039-048-051-160700-
FOX VALLEY

CITY           SKY/WX    TMP DP  RH WIND       PRES   REMARKS
NWS GREEN BAY  LGT SNOW  17  11  77 CALM      29.85S
APPLETON       NOT AVBL
OSHKOSH        LGT SNOW  21  18  88 E5        29.81F FOG
FOND DU LAC    LGT SNOW  24  20  84 E3        29.81F FOG
$$

WIZ022-050-052-160700-
EAST CENTRAL WISCONSIN

CITY           SKY/WX    TMP DP  RH WIND       PRES   REMARKS
EPHRAIM        NOT AVBL
WASHINGTON ISL NOT AVBL
STURGEON BAY   CLOUDY    18   9  68 NW5       29.85F
MANITOWOC      LGT SNOW  17  12  80 CALM      29.85F
SHEBOYGAN      LGT SNOW  20  18  92 NE5       29.83F FOG
$$

LMZ563-521-522-541>543-160700-
LAKESHORE

STATION/POSITION TIME  TEMP    WIND        PRES    VSBY  WAVE
                       AIR SEA DIR/SP/G                  HT/PER
                 (UTC) (F)     (DEG/KT/KT) (MB)    (MI)  (FT/S)
SHEBOYGAN LKSHOR 0500   23     330/  3/  3 1011.7R
KEWAUNEE LKSHORE 0530   15     290/  1/  4 1010.4F
NORTHPORT PIER   0540   20     290/  3/  7 1010.8S
MENOMINEE LKSHOR 0524   16     300/  6/  8 1011.0
$$




USA.gov is the U.S. government's official web portal to all federal, state and local government web resources and services.